Regional Weather Roundup
Issued by NWS

Home | Current Version | Previous Version | Text Only | Print | Product List | Glossary Off
Versions: 1 2 3 4 5 6 7 8 9 10 11 12 13 14 15 16 17 18 19 20 21 22 23 24 25 26 27

000
ASUS45 KBOU 200507
RWRCO

WEATHER ROUNDUP FOR COLORADO
NATIONAL WEATHER SERVICE DENVER/BOULDER CO
1100 PM MDT THU OCT 19 2017

NOTE: "FAIR" INDICATES FEW OR NO CLOUDS BELOW 12000 FEET WITH NO
SIGNIFICANT WEATHER AND/OR OBSTRUCTIONS TO VISIBILITY.

COZ001>005-013-030-031-200600-
...NORTHWEST COLORADO...

CITY           SKY/WX    TMP DP  RH WIND       PRES   REMARKS
CRAIG          FAIR      48  32  53 E3        29.97F
HAYDEN         MOCLDY    56  31  38 CALM      30.00F
MEEKER         CLOUDY    52  34  50 NE3       29.98F
RABBIT EARS PA FAIR      41  28  60 W5        30.21F
STEAMBOAT SPGS MOCLDY    50  29  44 E10       30.01F
WALDEN         NOT AVBL
$$

COZ006>008-011-200600-
...WEST CENTRAL VALLEYS...

CITY           SKY/WX    TMP DP  RH WIND       PRES   REMARKS
GRAND JUNCTION MOCLDY    61  30  31 E9        29.91F
MONTROSE       CLOUDY    55  31  39 S8        30.01F
EAGLE          FAIR      44  28  53 E6        30.05S
RIFLE          CLOUDY    55  30  38 E8        29.96F
DELTA          FAIR      59  26  28 CALM      29.97F
NUCLA          MOCLDY    63  30  29 S7        30.04F
$$

COZ017>023-064>068-200600-
...SOUTHWEST COLORADO...

CITY           SKY/WX    TMP DP  RH WIND       PRES   REMARKS
DURANGO        CLOUDY    49  30  48 N6        30.09R
CORTEZ         FAIR      51  34  52 E5        30.04S
PAGOSA SPRINGS CLOUDY    49  28  44 CALM      30.15R
TELLURIDE      MOCLDY    48  27  43 CALM      30.20S
WOLF CREEK PAS MOCLDY    34  27  75 S10G17    30.37S WCI  26
$$

COZ009-010-012-014-032>034-037-058>063-200600-
...CENTRAL COLORADO...

CITY           SKY/WX    TMP DP  RH WIND       PRES   REMARKS
ASPEN          FAIR      41  26  55 S8        30.09F
BUENA VISTA    FAIR      43  19  38 N5        30.09S
COPPER MTN     FAIR      41  23  48 W7        30.31S
BERTHOUD PASS  FAIR      32  23  69 N6        30.31F WCI  26
COTTONWOOD PAS FAIR      54  19  26 SW14      30.19F
GUNNISON       FAIR      45  27  49 N3        30.10S
KREMMLING      FAIR      45  27  49 CALM      30.08S
LEADVILLE      FAIR      36  19  50 NE9       30.18F
MONARCH PASS   FAIR      37  16  41 W17       30.41S
SALIDA         FAIR      51  18  27 SW9       30.14S
SUNLIGHT       FAIR      37  27  65 SW9G20    30.26F
WILKERSON PASS FAIR      43  14  31 SW14G22   30.27F
$$

COZ069>075-200600-
...SAN LUIS VALLEY/SANGRE DE CRISTO MOUNTAINS...

CITY           SKY/WX    TMP DP  RH WIND       PRES   REMARKS
ALAMOSA        FAIR      43  28  55 S10       30.09S
DEL NORTE      FAIR      52  27  37 W17       30.11S
LA VETA PASS   FAIR      45  27  49 SW21G30   30.32S
SAGUACHE       FAIR      41  18  38 NW9       30.10S
$$

COZ035-036-038>040-200600-
...NORTHERN COLORADO FRONT RANGE...

CITY           SKY/WX    TMP DP  RH WIND       PRES   REMARKS
DENVER INTL AP FAIR      54  29  38 SW13      29.89F
DMNS CITY PARK   N/A     53  30  41 E9        29.89F
AURORA         PTCLDY    55  32  41 S10       29.90F
FRONT RANGE AP FAIR      55  34  44 S8        29.90F
ERIE MUNI ARPT FAIR      44  34  65 CALM      29.94S
BOULDER MUN AP FAIR      50  32  50 CALM      29.88F
CENTENNIAL     FAIR      51  31  46 S8        29.91F
BROOMFIELD     FAIR      54  28  37 CALM      29.91F
FORT COLLINS   FAIR      48  37  65 NE7       29.87F
LONGMONT       FAIR      46  35  66 W5        29.89F
$$

COZ041-046-047-076>085-087-088-200600-
...PIKES PEAK/PALMER DIVIDE AND SOUTHERN FOOTHILLS...

CITY           SKY/WX    TMP DP  RH WIND       PRES   REMARKS
COLO. SPRINGS  FAIR      48  33  56 NE6       29.97F
A. F. ACADEMY  FAIR      42  28  56 N9        29.97F
SCHRIEVER AFB  FAIR      52  32  47 NE5       29.97F
CHEYENNE MTN   FAIR      55  26  31 S5        29.94F
ELLICOTT       FAIR     N/A N/A N/A CALM      29.95F
FALCON         FAIR      47  31  51 CALM      30.01F
FORT CARSON    FAIR      48  30  49 NW7       29.93F
LIMON          FAIR      42  38  85 SE6       29.93F
MONUMENT HILL  FAIR      45  30  57 S9        30.01F
CANON CITY     FAIR      52  32  46 W9        29.93S
WALSENBURG     FAIR      48  30  49 W6        29.96F
TRINIDAD       FAIR      56  31  38 VRB3      29.95F
$$

COZ042>045-048>051-090-091-200600-
...NORTHEAST COLORADO...

CITY           SKY/WX    TMP DP  RH WIND       PRES   REMARKS
GREELEY ARPT   FAIR      42  34  73 W5        29.87S
AKRON          FAIR      53  40  61 S12       29.88F
BURLINGTON     FAIR      55  46  71 S15       29.91F
WRAY           NOT AVBL
YUMA           FAIR      52  43  71 S8        29.87F
STERLING       FAIR      50  37  62 CALM      29.85F
HOLYOKE        FAIR      54  45  71 SE7       29.88F
FORT MORGAN    FAIR      53  32  44 CALM      29.87F
$$

COZ086-089-092>099-200600-
...SOUTHEAST COLORADO...

CITY           SKY/WX    TMP DP  RH WIND       PRES   REMARKS
PUEBLO         FAIR      49  35  58 W6        29.88S
LA JUNTA       FAIR      60  41  49 S7        29.88F
LAMAR          LGT RAIN  61  47  59 S14G23    29.87F
SPRINGFIELD      N/A     62  47  57 S21       29.97S
$$




USA.gov is the U.S. government's official web portal to all federal, state and local government web resources and services.